Location: N�rnberg
(49.4489°N, 11.0797°E)
Time: 19:51:30
(UTC+02:00)

ISS - Pass Details

Date: 30 March 2017
Orbit: 399 x 409 km, 51.6° (Epoch: 29 March)

Event Time Altitude Azimuth Distance (km) Brightness Sun altitude
Rises 20:47:59 0° 231° (SW) 2,304 0.5 -10.9°
Reaches altitude 10° 20:50:06 10° 225° (SW) 1,450 -0.7 -11.2°
Maximum altitude 20:53:13 45° 151° (SSE) 561 -3.5 -11.7°
Enters shadow 20:55:19 18° 84° (E) 1,063 -2.2 -12.0°
